Location: Greenwich
(51.4790°N, 0.0090°E)
Time: 14:38:16
(UTC+01:00)

Altair - Pass Details

Date: 21 June 2025
Orbit: 1502 x 1682 km, 47.2° (Epoch: 19 July)

Event Time Altitude Azimuth Distance (km) Brightness Sun altitude
Rises 23:15:32 0° 220° (SW) 4,626 9.8 -11.5°
Reaches altitude 10° 23:18:43 10° 214° (SW) 3,653 9.2 -11.7°
Maximum altitude 23:27:07 42° 147° (SSE) 2,061 7.7 -12.2°
Drops below altitude 10° 23:35:44 10° 81° (E) 3,753 9.4 -12.7°
Sets 23:39:03 0° 75° (ENE) 4,765 10.0 -12.9°
